Home > Weather > Buchs > Past weeks

Flag for Switzerland Past Weather in Buchs, St. Gallen, Switzerland — Yesterday and Last 2 Weeks

Now
56 °F

Fog.


Feels Like: 56 °F
Forecast: 56 / 70 °F
Wind: No wind

Location: Vaduz

Current Time: Jun 1, 2016 at 9:28:00 AM

Latest Report: Jun 1, 2016 at 8:00 AM


Visibility: 3 mi

Pressure: 29.97 "Hg

Humidity: 92%

Dew Point: 54 °F

Location of BuchsLocation

Past Weather in Buchs — Graph

°F

Buchs Temperature Yesterday

Maximum temperature yesterday: 67 °F (at 2:00 PM)
Minimum temperature yesterday: 52 °F (at 6:00 AM)
Average temperature yesterday: 58 °F

High & Low Weather Summary for the Past Weeks

 TemperatureHumidityPressure
High82 °F (May 22, 1:00 PM)97% (May 31, 6:00 AM)30.22 "Hg (May 31, 6:00 AM)
Low45 °F (May 24, 5:00 AM)23% (May 22, 1:00 PM)29.64 "Hg (May 29, 3:00 PM)
Average60 °F70%29.93 "Hg
* Reported May 17 8:00 AM — Jun 1 8:00 AM, Buchs, Weather by CustomWeather, © 2016

Note: Actual official high and low records may vary slightly from our data, if they occured in-between our weather recording intervals... More about our weather records

Advertising

Buchs Weather History for the Previous 24 Hours

Scroll right to see more
 ConditionsComfort  
Time TempWeatherWind HumidityBarometerVisibility
8:00 AM
Wed, Jun 1
56 °FFog.No wind92%29.97 "Hg3 mi
7:00 AM56 °FCool.1 mph94%29.96 "HgN/A
6:00 AM55 °FCool.2 mph95%29.97 "HgN/A
5:00 AM55 °FFog.1 mph95%29.97 "Hg4 mi
4:00 AM56 °FCool.1 mph95%29.97 "HgN/A
3:00 AM55 °FCool.1 mph95%29.97 "HgN/A
2:00 AM56 °FFog.2 mph94%29.98 "Hg4 mi
1:00 AM56 °FCool.1 mph94%29.98 "HgN/A
12:00 AM56 °FCool.1 mph94%29.98 "HgN/A
11:00 PM
Tue, May 31
57 °FRain. Overcast.1 mph93%29.96 "Hg4 mi
10:00 PM58 °FCool.2 mph89%29.94 "HgN/A
9:00 PM58 °FCool.2 mph89%29.92 "HgN/A
8:00 PM59 °FFog.2 mph89%29.89 "Hg4 mi
7:00 PM61 °FCool.3 mph75%29.87 "HgN/A
6:00 PM63 °FMild.3 mph76%29.85 "HgN/A
5:00 PM63 °FOvercast.2 mph73%29.85 "Hg4 mi
3:00 PM65 °FMild.9 mph61%29.83 "HgN/A
2:00 PM67 °FFog.10 mph57%29.83 "Hg4 mi
1:00 PM66 °FMild.8 mph59%29.83 "HgN/A
12:00 PM63 °FMild.7 mph66%29.85 "HgN/A
11:00 AM61 °FFog.5 mph74%29.86 "Hg4 mi
10:00 AM58 °FCool.1 mph82%29.87 "HgN/A
9:00 AM56 °FCool.2 mph89%29.88 "HgN/A
Weather by CustomWeather, © 2016

See weather overviewHow to use our weather pages